Location: *
(24.1434°N, 56.8729°E)
Time: 21:51:28
(UTC+00:00)

H-2A R/B - Pass Details

Date: 09 April 2020
Orbit: 734 x 836 km, 98.2° (Epoch: 25 May)

Event Time Altitude Azimuth Distance (km) Brightness Sun altitude
Exits shadow 16:32:36 17° 199° (SSW) 1,911 4.0 -27.2°
Maximum altitude 16:36:09 39° 260° (W) 1,169 3.2 -28.0°
Drops below altitude 10° 16:40:57 10° 329° (NNW) 2,329 5.2 -29.0°
Sets 16:43:23 0° 337° (NNW) 3,242 5.9 -29.5°
